This is the latest recevied weather packets stored in our database for station/object W8CWV-13. If no packets are shown the sender has not sent any weather packets the latest 10 day(s).
| Time | Temp. | Humidity | Pressure | Rain* | Wind** | Luminosity | Snow |
|---|---|---|---|---|---|---|---|
| 1777935268 | 23.33° C | 100% | 1015.8 hPa | - | - | - | - |
| 1777934698 | 23.89° C | 100% | 1015.7 hPa | - | - | - | - |
| 1777934130 | 23.89° C | 100% | 1015.7 hPa | - | - | - | - |
| 1777933555 | 24.44° C | 100% | 1015.8 hPa | - | - | - | - |
| 1777932980 | 24.44° C | 100% | 1015.7 hPa | - | - | - | - |
| 1777932402 | 24.44° C | 100% | 1015.7 hPa | - | - | - | - |
| 1777931828 | 24.44° C | 100% | 1015.7 hPa | - | - | - | - |
| 1777931262 | 25° C | 100% | 1015.7 hPa | - | - | - | - |
| 1777930684 | 25° C | 100% | 1015.7 hPa | - | - | - | - |
| 1777930107 | 25.56° C | 100% | 1015.5 hPa | - | - | - | - |
| 1777929532 | 26.11° C | 100% | 1015.6 hPa | - | - | - | - |
| 1777928963 | 27.22° C | 100% | 1015.3 hPa | - | - | - | - |
| 1777928391 | 28.33° C | 100% | 1015.2 hPa | - | - | - | - |
| 1777927819 | 27.78° C | 100% | 1015.3 hPa | - | - | - | - |
| 1777927243 | 28.33° C | 100% | 1015.3 hPa | - | - | - | - |
| 1777926669 | 28.89° C | 100% | 1015.3 hPa | - | - | - | - |
| 1777926091 | 28.33° C | 100% | 1015.5 hPa | - | - | - | - |
| 1777925516 | 28.33° C | 100% | 1015.6 hPa | - | - | - | - |
| 1777924944 | 28.89° C | 100% | 1015.6 hPa | - | - | - | - |
| 1777924375 | 28.33° C | 100% | 1015.9 hPa | - | - | - | - |
| 1777923793 | 27.78° C | 100% | 1016 hPa | - | - | - | - |
| 1777923228 | 29.44° C | 100% | 1016.2 hPa | - | - | - | - |
| 1777922645 | 28.33° C | 100% | 1016.5 hPa | - | - | - | - |
| 1777922075 | 28.89° C | 100% | 1016.7 hPa | - | - | - | - |
| 1777921505 | 29.44° C | 100% | 1016.7 hPa | - | - | - | - |
* Rain since midnight (hover to see other rain measurements)
** Current wind speed in m/s (hover to see current wind gust speed)